Location: Newark
(49.3667°N, 21.6167°E)
Time: 01:30:57
(UTC+00:00)

Envisat - Pass Details

Date: 13 December 2019
Orbit: 764 x 766 km, 98.1° (Epoch: 23 January)

Event Time Altitude Azimuth Distance (km) Brightness Sun altitude
Rises 15:45:39 0° 147° (SSE) 3,223 6.1 -10.9°
Reaches altitude 10° 15:48:00 10° 143° (SE) 2,301 5.3 -11.3°
Maximum altitude 15:52:52 50° 69° (ENE) 979 3.2 -12.0°
Drops below altitude 10° 15:57:47 10° 355° (N) 2,317 5.3 -12.7°
Sets 16:00:09 0° 350° (N) 3,247 6.1 -13.1°
